Regional Weather Roundup
Issued by NWS Green Bay, WI

Home | Current Version | Previous Version | Graphics & Text | Print | Product List | Glossary Off
Versions: 1 2 3 4 5 6 7 8 9 10 11 12 13 14 15 16 17 18 19 20 21 22 23 24 25 26 27 28 29 30 31 32 33 34 35 36 37 38 39 40 41 42 43 44 45 46 47 48 49 50

000
ASUS43 KGRB 170900
RWRGRB

NORTH-CENTRAL AND NORTHEAST WISCONSIN REGIONAL WEATHER ROUNDUP
NATIONAL WEATHER SERVICE GREEN BAY WI
300 AM CST SUN DEC 17 2017

WIZ005-009-010>012-018-019-171000-
NORTH CENTRAL WISCONSIN

CITY           SKY/WX    TMP DP  RH WIND       PRES   REMARKS
IRONWOOD       CLOUDY    22  19  89 CALM      30.12R
MANITOWISH WTR NOT AVBL
ARBOR VITAE    NOT AVBL
EAGLE RIVER    NOT AVBL
LAND O LAKES   NOT AVBL
RHINELANDER    CLOUDY    21  20  96 E7        30.10S FOG
PHILLIPS       NOT AVBL
ANTIGO         NOT AVBL
TOMAHAWK       NOT AVBL
MERRILL        NOT AVBL
$$

WIZ013-073-171000-
NORTHEAST WISCONSIN

CITY           SKY/WX    TMP DP  RH WIND       PRES   REMARKS
IRON MOUNTAIN  CLOUDY    17  13  84 CALM      30.15F
MARINETTE      CLOUDY    23  20  88 N7        30.18S
$$

WIZ017-030-035>037-045-171000-
CENTRAL WISCONSIN

CITY           SKY/WX    TMP DP  RH WIND       PRES   REMARKS
MEDFORD        NOT AVBL
WAUSAU         CLOUDY    21  19  92 E6        30.10R
MOSINEE        NOT AVBL
MARSHFIELD     CLOUDY    23  20  88 E8        30.09S
WISC RAPIDS    CLOUDY    24  19  81 E8        30.12S
STEVENS POINT  NOT AVBL
WAUPACA        NOT AVBL
SHAWANO        NOT AVBL
CLINTONVILLE   NOT AVBL
WAUTOMA        CLOUDY    25  22  88 NE7       30.13S
$$

WIZ038-039-048-051-171000-
FOX VALLEY

CITY           SKY/WX    TMP DP  RH WIND       PRES   REMARKS
NWS GREEN BAY  CLOUDY    27  21  78 N9        30.13F
APPLETON       NOT AVBL
OSHKOSH        CLOUDY    28  25  88 E6        30.11F
FOND DU LAC    CLOUDY    30  25  81 E6        30.11F
$$

WIZ022-050-052-171000-
EAST CENTRAL WISCONSIN

CITY           SKY/WX    TMP DP  RH WIND       PRES   REMARKS
EPHRAIM        NOT AVBL
WASHINGTON ISL NOT AVBL
STURGEON BAY   CLOUDY    28  24  85 E6        30.17R
MANITOWOC      CLOUDY    30  27  88 NE5       30.14F
SHEBOYGAN      CLOUDY    31  28  89 E6        30.12S
$$

LMZ563-521-522-541>543-171000-
LAKESHORE

STATION/POSITION TIME  TEMP    WIND        PRES    VSBY  WAVE
                       AIR SEA DIR/SP/G                  HT/PER
                 (UTC) (F)     (DEG/KT/KT) (MB)    (MI)  (FT/S)
SHEBOYGAN LKSHOR 0800   32     100/ 11/ 12 1021.0R
KEWAUNEE LKSHORE 0830   31      80/  6/  9 1020.3R
NORTHPORT PIER   0840   28      80/ 12/ 17 1022.0S
SISTER BAY LKSHO 0820   28     100/  4/  7   N/A
MENOMINEE LKSHOR 0830   29      60/ 12/ 14 1021.4R
$$




USA.gov is the U.S. government's official web portal to all federal, state and local government web resources and services.